CW9352 Weather Reports


Display with metric or nautical units.
time (UTC)temp
F
wind
direction
speed
MPH
gust
MPH
rain 1hr
in
rain 24hr
in
rain mn
in
humidity
%
barometer
mb
20260509185027 71 75 1.0 2.0 0.01 1.02 0.86 90 1011.5
20260509184018 71 27 1.0 3.0 0.01 1.02 0.86 89 1011.9
20260509183019 70 14 1.0 5.0 0.01 1.02 0.86 90 1012.3
20260509182019 70 18 2.0 4.0 0.01 1.02 0.86 92 1012.6
20260509181021 69 22 2.0 6.0 0.01 1.02 0.86 95 1013.0
20260509180039 68 4 2.0 6.0 0.01 1.02 0.86 96 1013.2
20260509175028 67 354 2.0 5.0 0.01 1.02 0.85 98 1013.4
20260509174043 67 356 3.0 6.0 0.05 1.01 0.85 98 1013.7
20260509173023 67 357 3.0 6.0 0.10 1.01 0.85 99 1014.2
20260509172018 66 1 4.0 5.0 0.16 1.01 0.85 100 1014.7
20260509171017 66 353 3.0 7.0 0.19 1.01 0.85 99 1015.1
20260509170017 65 353 2.0 5.0 0.29 1.01 0.85 99 1015.4
20260509165023 65 359 3.0 6.0 0.44 1.01 0.84 98 1015.5
20260509164044 65 349 3.0 7.0 0.44 0.97 0.81 98 1015.3
20260509163017 65 355 4.0 8.0 0.60 0.91 0.75 98 1015.3
20260509162019 65 353 4.0 9.0 0.57 0.86 0.69 98 1015.3
20260509161018 65 358 4.0 7.0 0.53 0.82 0.66 98 1015.5
20260509160018 65 345 3.0 8.0 0.43 0.72 0.56 97 1015.3
20260509155018 66 356 4.0 8.0 0.28 0.57 0.40 97 1015.1
20260509154018 67 357 2.0 5.0 0.24 0.53 0.36 96 1015.1
20260509153030 69 341 2.0 5.0 0.02 0.31 0.15 96 1015.2
20260509152019 72 353 5.0 13.0 0.00 0.29 0.13 96 1014.7
20260509151030 74 351 1.0 4.0 0.00 0.29 0.13 96 1014.1
20260509150033 74 331 0.0 1.0 0.00 0.29 0.13 97 1013.9
20260509145053 73 357 1.0 3.0 0.00 0.29 0.13 97 1013.5
20260509144034 73 14 1.0 2.0 0.00 0.29 0.13 98 1013.2
20260509143031 73 47 0.0 1.0 0.00 0.29 0.13 98 1013.0
20260509142031 73 44 0.0 1.0 0.00 0.29 0.13 99 1013.0
20260509141017 73 104 2.0 3.0 0.00 0.29 0.13 99 1013.0
20260509140032 73 112 1.0 2.0 0.00 0.29 0.13 99 1013.0
20260509135037 73 84 1.0 2.0 0.00 0.29 0.13 99 1013.1
20260509134017 73 104 1.0 2.0 0.00 0.29 0.13 99 1013.1
20260509133017 73 66 0.0 1.0 0.00 0.29 0.13 99 1013.0
20260509132032 73 5 0.0 1.0 0.00 0.29 0.13 99 1012.9
20260509131113 73 355 1.0 3.0 0.00 0.29 0.13 99 1012.8
20260509130032 72 4 1.0 2.0 0.00 0.29 0.13 99 1012.7
20260509125018 72 344 0.0 1.0 0.00 0.29 0.13 99 1012.5
20260509124018 72 0.0 0.0 0.00 0.29 0.13 99 1012.3
20260509123021 72 26 1.0 2.0 0.00 0.29 0.13 99 1012.1
20260509122038 72 355 1.0 2.0 0.00 0.29 0.13 99 1012.1
20260509121018 72 350 1.0 3.0 0.00 0.29 0.13 99 1011.9
20260509120019 72 0.0 0.0 0.00 0.29 0.13 99 1011.6
20260509115018 72 0.0 0.0 0.00 0.29 0.13 99 1011.3
20260509114019 72 334 0.0 1.0 0.00 0.29 0.13 99 1010.9
20260509113019 72 56 0.0 2.0 0.00 0.29 0.13 99 1010.5
20260509112019 72 132 1.0 3.0 0.00 0.29 0.13 99 1010.2
20260509111019 72 119 1.0 3.0 0.00 0.29 0.13 99 1010.2
20260509110020 72 184 2.0 4.0 0.00 0.29 0.13 99 1010.2
20260509105019 71 170 2.0 4.0 0.00 0.29 0.13 99 1009.9
20260509104020 71 142 2.0 5.0 0.00 0.29 0.13 99 1010.0
20260509103020 70 86 2.0 3.0 0.00 0.29 0.13 99 1009.9
20260509102020 69 194 0.0 2.0 0.00 0.29 0.13 99 1010.4
20260509101020 69 19 0.0 1.0 0.00 0.29 0.13 99 1010.5
20260509100020 69 14 0.0 1.0 0.00 0.29 0.13 98 1010.3
20260509095021 69 336 1.0 2.0 0.00 0.29 0.13 98 1010.4
20260509094021 68 158 1.0 3.0 0.00 0.29 0.13 98 1010.7
20260509093022 68 182 0.0 2.0 0.01 0.29 0.13 98 1011.0
20260509092021 68 156 1.0 4.0 0.01 0.29 0.13 98 1011.0
20260509091022 68 345 1.0 4.0 0.02 0.29 0.13 98 1011.6
20260509090024 68 349 1.0 3.0 0.02 0.29 0.13 98 1011.6
20260509085021 68 338 1.0 2.0 0.04 0.29 0.13 98 1012.1
20260509084022 69 340 1.0 2.0 0.05 0.29 0.12 98 1012.5
20260509083022 69 346 0.0 1.0 0.05 0.28 0.12 98 1012.7
20260509082022 69 0.0 0.0 0.05 0.27 0.11 98 1012.9
20260509081023 69 0.0 0.0 0.05 0.27 0.11 97 1013.1
20260509080023 69 338 1.0 2.0 0.05 0.27 0.11 97 1012.7
20260509075022 69 332 1.0 2.0 0.03 0.25 0.09 97 1012.7
20260509074023 69 217 0.0 0.0 0.07 0.23 0.07 97 1011.8
20260509073023 70 321 0.0 1.0 0.07 0.23 0.07 97 1011.8
20260509072024 70 303 0.0 1.0 0.06 0.23 0.06 97 1012.1
20260509071024 70 229 0.0 1.0 0.06 0.23 0.06 97 1012.0
20260509070044 70 318 0.0 1.0 0.06 0.22 0.06 96 1012.2
20260509065026 70 325 0.0 1.0 0.06 0.22 0.06 96 1012.3
20260509064026 71 19 0.0 2.0 0.00 0.16 0.00 96 1012.3
20260509063027 71 13 0.0 1.0 0.00 0.16 0.00 95 1012.7
20260509062027 71 0.0 0.0 0.00 0.16 0.00 95 1012.4
20260509061025 71 0.0 0.0 0.00 0.16 0.00 95 1012.5
20260509060024 71 175 1.0 3.0 0.00 0.16 0.00 95 1012.4
20260509055025 71 200 0.0 2.0 0.00 0.16 0.00 95 1012.7
20260509054045 72 346 1.0 2.0 0.00 0.16 0.00 94 1012.9
20260509053025 72 330 1.0 3.0 0.00 0.16 0.00 94 1013.4
20260509052025 72 187 0.0 2.0 0.00 0.16 0.00 94 1012.9
20260509051025 72 164 1.0 3.0 0.00 0.16 0.00 94 1012.5
20260509050017 72 140 2.0 6.0 0.00 0.16 0.00 93 1012.3
20260509045023 72 147 3.0 7.0 0.00 0.16 0.16 93 1012.3
20260509044023 72 125 3.0 6.0 0.00 0.16 0.16 93 1012.0
20260509043023 71 152 2.0 7.0 0.00 0.16 0.16 94 1012.0
20260509042023 71 131 3.0 6.0 0.00 0.16 0.16 94 1011.8
20260509041018 71 141 4.0 7.0 0.00 0.16 0.16 94 1011.6
20260509040018 71 155 4.0 8.0 0.01 0.16 0.16 94 1011.5
20260509035018 71 144 4.0 12.0 0.01 0.16 0.16 94 1011.5
20260509034018 71 160 3.0 8.0 0.01 0.16 0.16 94 1011.8
20260509033018 71 148 3.0 6.0 0.02 0.16 0.16 94 1012.5
20260509032119 70 146 3.0 9.0 0.02 0.16 0.16 95 1012.3
20260509031018 70 150 3.0 7.0 0.03 0.16 0.16 95 1012.5
20260509030018 70 144 3.0 7.0 0.04 0.16 0.16 95 1013.1
20260509025028 70 148 3.0 5.0 0.04 0.15 0.15 95 1013.5
20260509024028 70 132 1.0 3.0 0.04 0.15 0.15 95 1013.7
20260509023028 70 173 1.0 3.0 0.04 0.14 0.14 95 1013.8
20260509022028 70 149 1.0 3.0 0.03 0.14 0.14 94 1014.3
20260509021028 70 153 2.0 4.0 0.02 0.13 0.13 94 1014.4
20260509020028 70 105 1.0 3.0 0.01 0.11 0.11 95 1014.5
20260509015028 70 198 1.0 3.0 0.00 0.11 0.11 94 1014.6
20260509014029 70 177 1.0 4.0 0.00 0.11 0.11 94 1014.7
20260509013020 69 178 2.0 5.0 0.02 0.11 0.11 95 1014.4
20260509012029 69 168 3.0 5.0 0.04 0.11 0.11 96 1014.6
20260509011049 69 146 2.0 3.0 0.07 0.11 0.11 96 1014.4
20260509010029 69 163 3.0 5.0 0.09 0.11 0.11 96 1014.2
20260509005020 69 120 2.0 6.0 0.09 0.11 0.11 96 1014.2
20260509004030 68 202 2.0 3.0 0.09 0.11 0.11 96 1014.2
20260509003030 68 0 1.0 2.0 0.08 0.09 0.09 96 1013.5
20260509002030 68 202 0.0 1.0 0.06 0.06 0.06 95 1013.8
20260509001000 68 8 0.0 2.0 0.04 0.04 0.04 95 1013.7
20260508235531 68 339 1.0 3.0 0.02 0.02 0.02 95 1013.2
20260508234530 68 346 1.0 4.0 0.01 0.02 0.02 94 1013.2
20260508233531 68 353 3.0 5.0 0.01 0.01 0.01 94 1013.2
20260508232522 69 352 2.0 6.0 0.00 0.01 0.01 94 1013.4
20260508231522 69 351 3.0 10.0 0.00 0.00 0.00 93 1013.8
20260508230522 69 345 2.0 6.0 0.00 0.00 0.00 94 1014.0
20260508225602 69 355 3.0 7.0 0.00 0.00 0.00 94 1014.1
20260508224531 69 345 2.0 4.0 0.00 0.00 0.00 95 1014.3
20260508223517 69 353 2.0 4.0 0.00 0.00 0.00 95 1014.6
20260508222537 69 337 2.0 4.0 0.00 0.00 0.00 95 1014.9
20260508221523 69 352 2.0 5.0 0.00 0.00 0.00 95 1014.8
20260508220534 70 333 1.0 2.0 0.00 0.00 0.00 95 1014.9
20260508215532 70 343 1.0 3.0 0.00 0.00 0.00 94 1015.3
20260508214533 70 320 1.0 3.0 0.00 0.00 0.00 94 1015.4
20260508213517 71 338 1.0 2.0 0.00 0.00 0.00 94 1015.4
20260508212518 71 340 0.0 1.0 0.00 0.00 0.00 95 1014.9
20260508211517 71 315 0.0 1.0 0.00 0.00 0.00 95 1014.5
20260508210518 71 349 0.0 2.0 0.00 0.00 0.00 95 1014.3
20260508205518 70 351 0.0 2.0 0.00 0.00 0.00 95 1014.5
20260508204519 70 0.0 0.0 0.00 0.00 0.00 95 1014.1
20260508203517 70 171 1.0 3.0 0.00 0.00 0.00 95 1014.2
20260508202517 70 211 1.0 2.0 0.00 0.00 0.00 95 1014.3
20260508201517 69 349 1.0 3.0 0.00 0.00 0.00 95 1014.3
20260508200519 70 351 1.0 2.0 0.00 0.00 0.00 95 1014.6
20260508195539 70 352 2.0 3.0 0.00 0.00 0.00 93 1014.7
20260508194519 71 346 2.0 6.0 0.00 0.01 0.00 90 1015.0
20260508193517 73 332 2.0 3.0 0.00 0.03 0.00 87 1015.1
20260508192538 73 12 1.0 3.0 0.00 0.05 0.00 87 1014.7
20260508191518 73 50 0.0 2.0 0.00 0.09 0.00 87 1014.6
20260508190518 73 125 1.0 2.0 0.00 0.16 0.00 87 1014.5